EW6470 Weather Reports


Display with metric or nautical units.
time (UTC)temp
F
wind
direction
speed
MPH
gust
MPH
rain 1hr
in
rain 24hr
in
rain mn
in
humidity
%
barometer
mb
20260901010035 52 0 0.0 0.0 0.00 0.43 0.40 81 1002.4
20260901005516 51 0 0.0 1.0 0.00 0.43 0.40 76 1002.5
20260901005021 52 0 0.0 1.0 0.00 0.43 0.40 75 1002.4
20260901004536 53 0 0.0 2.0 0.00 0.43 0.40 74 1002.3
20260901004019 54 0 0.0 2.0 0.00 0.43 0.40 74 1002.3
20260901003519 54 80 1.0 3.0 0.00 0.43 0.40 71 1002.2
20260901003036 55 132 1.0 3.0 0.00 0.43 0.40 74 1002.3
20260901002516 54 0 0.0 2.0 0.00 0.43 0.40 73 1002.1
20260901002016 54 148 1.0 2.0 0.00 0.43 0.40 73 1002.1
20260901001537 53 318 0.0 2.0 0.00 0.43 0.40 75 1002.2
20260901001018 53 153 1.0 2.0 0.00 0.43 0.40 76 1002.1
20260901000515 53 0 0.0 2.0 0.00 0.43 0.40 77 1002.1
20260901000036 53 98 0.0 2.0 0.00 0.43 0.40 76 1002.1
20260831235521 52 101 0.0 2.0 0.00 0.43 0.40 78 1002.0
20260831235020 52 128 0.0 4.0 0.00 0.43 0.40 78 1002.0
20260831234539 52 0 1.0 4.0 0.00 0.43 0.40 77 1002.0
20260831234016 51 129 0.0 3.0 0.00 0.43 0.40 79 1001.9
20260831233523 51 91 0.0 4.0 0.00 0.43 0.40 79 1002.0
20260831233033 51 143 1.0 4.0 0.00 0.43 0.40 78 1002.0
20260831232517 51 151 1.0 4.0 0.00 0.43 0.40 77 1002.1
20260831232017 51 152 1.0 4.0 0.00 0.43 0.40 76 1002.0
20260831231536 50 148 1.0 3.0 0.00 0.43 0.40 79 1002.0
20260831231018 50 132 0.0 4.0 0.00 0.43 0.40 78 1002.1
20260831230524 50 254 1.0 5.0 0.00 0.43 0.40 77 1001.9
20260831230040 50 0 1.0 5.0 0.00 0.43 0.40 78 1002.0
20260831225521 50 184 2.0 3.0 0.00 0.43 0.40 79 1001.9
20260831225018 49 0 0.0 5.0 0.00 0.43 0.40 81 1001.9
20260831224536 49 0 0.0 5.0 0.00 0.43 0.40 84 1001.9
20260831224018 47 0 0.0 1.0 0.00 0.43 0.40 84 1001.8
20260831223522 47 61 0.0 2.0 0.00 0.43 0.40 85 1001.9
20260831223036 48 0 0.0 4.0 0.00 0.43 0.40 84 1001.9
20260831222519 48 21 1.0 4.0 0.00 0.43 0.40 84 1001.9
20260831222022 47 0 0.0 2.0 0.00 0.43 0.40 85 1001.9
20260831221532 47 146 0.0 3.0 0.00 0.43 0.40 84 1002.0
20260831221018 46 161 1.0 3.0 0.00 0.43 0.40 84 1002.0
20260831220519 46 0 0.0 0.0 0.00 0.43 0.40 85 1002.1
20260831220038 46 0 0.0 0.0 0.00 0.43 0.40 86 1002.2
20260831215518 45 0 0.0 0.0 0.00 0.43 0.40 88 1002.1
20260831215020 45 0 0.0 1.0 0.00 0.43 0.40 89 1002.1
20260831214532 45 0 0.0 1.0 0.00 0.43 0.40 88 1002.1
20260831214021 45 288 0.0 0.0 0.00 0.43 0.40 88 1002.0
20260831213525 46 0 0.0 1.0 0.00 0.43 0.40 89 1002.0
20260831213034 45 0 0.0 1.0 0.00 0.43 0.40 89 1002.1
20260831212520 45 34 0.0 2.0 0.00 0.43 0.40 90 1001.9
20260831212020 45 0 0.0 3.0 0.00 0.43 0.40 91 1001.8
20260831211535 45 360 0.0 3.0 0.00 0.43 0.40 90 1002.0
20260831211016 45 330 0.0 1.0 0.00 0.43 0.40 93 1001.9
20260831210517 44 0 0.0 1.0 0.00 0.43 0.40 94 1002.0
20260831210035 44 0 0.0 1.0 0.00 0.43 0.40 93 1001.8
20260831205520 44 0 0.0 1.0 0.00 0.43 0.40 94 1001.9
20260831205021 43 0 0.0 1.0 0.00 0.43 0.40 93 1001.8
20260831204540 43 38 0.0 1.0 0.00 0.43 0.40 93 1001.7
20260831204020 44 0 0.0 1.0 0.00 0.43 0.40 93 1001.8
20260831203520 43 0 0.0 4.0 0.00 0.43 0.40 92 1001.7
20260831203042 44 0 0.0 4.0 0.00 0.43 0.40 91 1001.5
20260831202518 44 146 0.0 4.0 0.00 0.43 0.40 92 1001.4
20260831202019 44 244 1.0 4.0 0.00 0.43 0.40 93 1001.6
20260831201534 44 0 0.0 6.0 0.00 0.43 0.40 93 1001.5
20260831201021 44 24 1.0 6.0 0.00 0.43 0.40 91 1001.5
20260831200515 44 281 1.0 6.0 0.00 0.43 0.40 92 1001.5
20260831200112 44 294 1.0 4.0 0.00 0.43 0.40 93 1001.4
20260831195523 43 214 1.0 4.0 0.00 0.43 0.40 93 1001.4
20260831195019 43 12 0.0 7.0 0.01 0.43 0.40 94 1001.4
20260831194538 42 275 1.0 7.0 0.01 0.43 0.40 94 1001.3
20260831194018 42 0 1.0 6.0 0.02 0.43 0.40 93 1001.4
20260831193519 42 0 1.0 6.0 0.03 0.43 0.40 93 1001.4
20260831193034 42 269 1.0 5.0 0.03 0.43 0.40 94 1001.5
20260831192519 41 0 0.0 3.0 0.04 0.43 0.40 94 1001.4
20260831192018 41 170 1.0 5.0 0.04 0.43 0.40 94 1001.4
20260831191535 41 212 2.0 5.0 0.04 0.43 0.40 94 1001.5
20260831191017 41 213 1.0 5.0 0.04 0.43 0.40 94 1001.5
20260831190523 41 191 1.0 5.0 0.04 0.43 0.40 94 1001.6
20260831190039 40 0 0.0 3.0 0.04 0.43 0.40 95 1001.7
20260831185521 40 265 0.0 1.0 0.04 0.43 0.40 94 1001.8
20260831185023 40 287 0.0 1.0 0.03 0.42 0.39 94 1001.7
20260831184535 40 283 0.0 2.0 0.03 0.42 0.39 94 1001.7
20260831184018 40 285 0.0 2.0 0.02 0.41 0.38 94 1001.8
20260831183516 40 0 0.0 2.0 0.01 0.40 0.37 94 1001.8
20260831183036 40 277 0.0 2.0 0.00 0.39 0.36 94 1001.8
20260831182521 40 281 0.0 2.0 0.00 0.39 0.36 94 1001.8
20260831182017 40 0 0.0 2.0 0.00 0.39 0.36 94 1001.8
20260831181542 40 0 0.0 3.0 0.00 0.39 0.36 94 1001.8
20260831181019 40 0 0.0 3.0 0.00 0.39 0.36 94 1001.8
20260831180519 40 161 0.0 4.0 0.00 0.39 0.36 94 1001.8
20260831180034 40 249 0.0 4.0 0.00 0.39 0.36 94 1001.8
20260831175519 40 236 1.0 4.0 0.00 0.39 0.36 94 1001.8
20260831175019 40 0 0.0 3.0 0.00 0.39 0.36 94 1001.8
20260831174547 40 0 0.0 3.0 0.00 0.39 0.36 94 1001.7
20260831174019 40 179 0.0 3.0 0.00 0.39 0.36 94 1001.7
20260831173518 40 243 0.0 2.0 0.00 0.39 0.36 95 1001.8
20260831173038 40 0 0.0 3.0 0.00 0.39 0.36 95 1001.6
20260831172520 39 0 1.0 3.0 0.00 0.39 0.36 95 1001.6
20260831172018 39 211 0.0 4.0 0.00 0.39 0.36 95 1001.7
20260831171534 39 228 1.0 4.0 0.01 0.39 0.36 95 1001.7
20260831171019 39 157 1.0 5.0 0.01 0.39 0.36 95 1001.6
20260831170521 39 227 1.0 5.0 0.01 0.39 0.36 95 1001.6
20260831170039 39 215 1.0 4.0 0.01 0.39 0.36 95 1001.6
20260831165519 39 204 2.0 5.0 0.01 0.39 0.36 95 1001.7
20260831165018 39 246 1.0 5.0 0.02 0.39 0.36 94 1001.6
20260831164536 40 231 2.0 5.0 0.02 0.39 0.36 95 1001.7
20260831164016 40 163 1.0 5.0 0.03 0.39 0.36 95 1001.6
20260831163518 40 178 1.0 5.0 0.04 0.39 0.36 95 1001.7
20260831163036 40 258 2.0 4.0 0.05 0.39 0.36 95 1001.6
20260831162523 40 217 1.0 3.0 0.06 0.39 0.36 95 1001.5
20260831162020 40 214 0.0 3.0 0.07 0.39 0.36 95 1001.5
20260831161536 39 0 0.0 0.0 0.07 0.38 0.35 95 1001.6
20260831161018 39 0 0.0 0.0 0.09 0.38 0.35 95 1001.5
20260831160518 39 0 0.0 0.0 0.10 0.38 0.35 95 1001.5
20260831160035 39 0 0.0 0.0 0.12 0.38 0.35 95 1001.7
20260831155518 39 0 0.0 1.0 0.15 0.38 0.35 95 1001.6
20260831155018 39 0 0.0 2.0 0.16 0.37 0.34 95 1001.7
20260831154606 39 0 0.0 3.0 0.17 0.37 0.34 95 1001.8
20260831154019 39 17 0.0 3.0 0.16 0.36 0.33 95 1001.9
20260831153520 39 0 0.0 3.0 0.15 0.35 0.32 95 1002.0
20260831153034 39 0 0.0 3.0 0.14 0.34 0.31 95 1001.9
20260831152517 39 0 0.0 3.0 0.13 0.33 0.30 95 1002.1
20260831152018 39 69 0.0 3.0 0.12 0.32 0.29 94 1002.2
20260831151534 39 0 0.0 7.0 0.10 0.30 0.27 94 1002.2
20260831151018 39 333 0.0 7.0 0.09 0.29 0.26 94 1002.3
20260831150516 39 352 1.0 7.0 0.08 0.28 0.25 94 1002.4
20260831150033 40 250 0.0 5.0 0.05 0.25 0.22 94 1002.3
20260831145518 40 200 0.0 6.0 0.04 0.23 0.20 94 1002.4
20260831145020 40 288 1.0 6.0 0.02 0.21 0.18 94 1002.3
20260831144533 40 47 0.0 3.0 0.01 0.20 0.17 95 1002.0
20260831144020 40 0 0.0 2.0 0.02 0.20 0.17 95 1002.0
20260831143519 40 34 0.0 3.0 0.02 0.20 0.17 95 1001.9
20260831143031 40 0 0.0 3.0 0.03 0.20 0.17 95 1001.9
20260831142519 40 322 0.0 3.0 0.03 0.20 0.17 95 1001.9
20260831142019 40 76 0.0 4.0 0.05 0.20 0.17 95 1002.0
20260831141540 40 285 0.0 8.0 0.08 0.20 0.17 95 1001.9
20260831141016 40 0 1.0 8.0 0.11 0.20 0.17 95 1001.9
20260831140520 40 0 1.0 7.0 0.12 0.20 0.17 95 1002.1
20260831140037 40 0 0.0 4.0 0.12 0.20 0.17 95 1002.0
20260831135520 40 299 0.0 4.0 0.12 0.19 0.16 95 1002.0
20260831135021 40 0 1.0 4.0 0.12 0.19 0.16 95 1002.0
20260831134537 40 0 0.0 3.0 0.12 0.19 0.16 95 1002.1
20260831134018 40 0 0.0 3.0 0.12 0.18 0.15 94 1001.9
20260831133518 40 0 0.0 2.0 0.11 0.17 0.14 94 1002.3
20260831133034 41 0 0.0 9.0 0.12 0.17 0.14 93 1002.3
20260831132522 41 288 1.0 13.0 0.12 0.16 0.13 93 1002.3
20260831132018 43 86 2.0 13.0 0.10 0.14 0.11 91 1002.0
20260831131536 46 306 2.0 7.0 0.08 0.11 0.08 96 1002.2
20260831131017 46 0 0.0 0.0 0.06 0.09 0.06 96 1001.6
20260831130520 46 0 0.0 0.0 0.05 0.08 0.05 96 1001.6
20260831130034 46 0 0.0 0.0 0.05 0.08 0.05 96 1001.6
20260831125518 46 0 0.0 0.0 0.04 0.07 0.04 96 1001.8
20260831125017 46 0 0.0 0.0 0.04 0.07 0.04 96 1001.8
20260831124535 46 0 0.0 0.0 0.04 0.07 0.04 96 1001.8
20260831124016 46 0 0.0 0.0 0.03 0.06 0.03 96 1001.8
20260831123518 46 0 0.0 0.0 0.03 0.06 0.03 96 1001.9
20260831123034 46 0 0.0 0.0 0.02 0.05 0.02 96 1002.1
20260831122524 46 0 0.0 0.0 0.01 0.04 0.01 96 1002.2
20260831122017 46 0 0.0 0.0 0.01 0.04 0.01 96 1002.4
20260831121534 46 0 0.0 0.0 0.00 0.03 0.00 96 1002.3
20260831121018 46 0 0.0 0.0 0.00 0.03 0.00 96 1002.4
20260831120519 46 0 0.0 0.0 0.00 0.03 0.00 96 1002.4
20260831120035 46 0 0.0 0.0 0.00 0.03 0.00 96 1002.6
20260831115517 46 0 0.0 0.0 0.00 0.03 0.00 96 1002.6
20260831115016 46 0 0.0 0.0 0.00 0.03 0.00 96 1002.7
20260831114536 46 0 0.0 0.0 0.00 0.03 0.00 96 1002.7
20260831114020 46 0 0.0 0.0 0.00 0.03 0.00 96 1002.8
20260831113523 46 0 0.0 0.0 0.00 0.03 0.00 96 1002.9
20260831113046 46 0 0.0 0.0 0.00 0.03 0.00 96 1002.9
20260831112517 46 0 0.0 0.0 0.00 0.03 0.00 96 1002.8
20260831112018 46 0 0.0 0.0 0.00 0.03 0.00 96 1002.9
20260831111534 46 0 0.0 0.0 0.00 0.03 0.00 96 1002.8
20260831111015 46 0 0.0 0.0 0.00 0.03 0.00 96 1002.9
20260831110521 46 0 0.0 0.0 0.00 0.03 0.00 96 1002.9
20260831110036 46 0 0.0 0.0 0.00 0.03 0.00 96 1002.9
20260831105522 46 0 0.0 0.0 0.00 0.03 0.00 96 1003.0
20260831105017 46 0 0.0 0.0 0.00 0.03 0.00 96 1003.0
20260831104538 46 0 0.0 0.0 0.00 0.03 0.00 96 1003.2
20260831104017 46 0 0.0 0.0 0.00 0.03 0.00 96 1003.1
20260831103517 46 0 0.0 0.0 0.00 0.03 0.00 96 1003.3
20260831103034 46 0 0.0 0.0 0.00 0.03 0.00 96 1003.5
20260831102515 46 0 0.0 0.0 0.00 0.03 0.00 96 1003.6
20260831102017 46 0 0.0 0.0 0.00 0.03 0.00 96 1003.8
20260831101534 46 0 0.0 0.0 0.00 0.03 0.00 96 1004.0
20260831101020 46 0 0.0 0.0 0.00 0.03 0.00 96 1003.9
20260831100520 45 0 0.0 0.0 0.00 0.03 0.00 95 1004.0
20260831100037 45 0 0.0 0.0 0.00 0.03 0.00 95 1003.9
20260831095519 45 0 0.0 0.0 0.00 0.03 0.00 95 1004.0
20260831095016 45 0 0.0 0.0 0.00 0.03 0.00 95 1004.2
20260831094535 45 0 0.0 0.0 0.00 0.03 0.00 95 1004.2
20260831094016 45 0 0.0 0.0 0.00 0.03 0.00 95 1004.3
20260831093516 45 0 0.0 0.0 0.00 0.03 0.00 95 1004.3
20260831093037 46 0 0.0 0.0 0.00 0.03 0.00 95 1004.3
20260831092524 46 0 0.0 0.0 0.00 0.03 0.00 95 1004.3
20260831092016 46 0 0.0 0.0 0.00 0.03 0.00 95 1004.5
20260831091534 46 0 0.0 0.0 0.00 0.03 0.00 95 1004.5
20260831091018 46 0 0.0 0.0 0.00 0.03 0.00 95 1004.6
20260831090516 46 0 0.0 0.0 0.00 0.03 0.00 95 1004.7
20260831090034 46 0 0.0 0.0 0.00 0.03 0.00 95 1004.8
20260831085519 46 0 0.0 0.0 0.00 0.03 0.00 95 1005.0
20260831085015 47 0 0.0 0.0 0.00 0.03 0.00 95 1005.0
20260831084540 47 0 0.0 0.0 0.00 0.03 0.00 95 1005.1
20260831084020 47 0 0.0 0.0 0.00 0.03 0.00 95 1005.0
20260831083520 47 0 0.0 0.0 0.00 0.03 0.00 95 1005.1
20260831083035 47 0 0.0 0.0 0.00 0.03 0.00 95 1005.1
20260831082518 47 0 0.0 0.0 0.00 0.03 0.00 95 1005.3
20260831082018 47 0 0.0 0.0 0.00 0.03 0.00 95 1005.5
20260831081540 47 0 0.0 0.0 0.00 0.03 0.00 95 1005.4
20260831081018 47 0 0.0 0.0 0.00 0.03 0.00 95 1005.5
20260831080516 48 0 0.0 0.0 0.00 0.03 0.00 95 1005.7
20260831080039 48 0 0.0 0.0 0.00 0.03 0.00 95 1005.6
20260831075517 48 0 0.0 0.0 0.00 0.03 0.03 95 1005.8
20260831075020 48 0 0.0 0.0 0.00 0.03 0.03 95 1005.9
20260831074535 48 0 0.0 0.0 0.01 0.03 0.03 95 1005.9
20260831074019 48 0 0.0 0.0 0.01 0.03 0.03 95 1006.0
20260831073522 48 0 0.0 0.0 0.01 0.03 0.03 95 1006.1
20260831073034 48 0 0.0 0.0 0.01 0.03 0.03 95 1006.1
20260831072519 48 0 0.0 0.0 0.01 0.03 0.03 95 1006.3
20260831072016 48 0 0.0 0.0 0.01 0.03 0.03 95 1006.3
20260831071534 49 0 0.0 0.0 0.01 0.03 0.03 95 1006.3
20260831071017 49 0 0.0 0.0 0.01 0.03 0.03 95 1006.5
20260831070517 49 0 0.0 0.0 0.01 0.03 0.03 95 1006.5
20260831070043 49 0 0.0 0.0 0.02 0.03 0.03 95 1006.5
20260831065522 49 0 0.0 0.0 0.02 0.03 0.03 95 1006.5
20260831065020 49 0 0.0 0.0 0.02 0.03 0.03 95 1006.6
20260831064536 49 0 0.0 0.0 0.01 0.02 0.02 95 1006.6
20260831064017 49 0 0.0 0.0 0.01 0.02 0.02 95 1006.7
20260831063516 49 0 0.0 0.0 0.01 0.02 0.02 95 1006.7
20260831063034 49 0 0.0 0.0 0.02 0.02 0.02 95 1006.7
20260831062517 50 0 0.0 0.0 0.02 0.02 0.02 95 1006.8
20260831062018 50 0 0.0 0.0 0.02 0.02 0.02 95 1006.9
20260831061534 50 0 0.0 0.0 0.02 0.02 0.02 95 1006.8
20260831061016 50 0 0.0 0.0 0.02 0.02 0.02 95 1007.0
20260831060517 50 0 0.0 0.0 0.02 0.02 0.02 95 1006.9
20260831060037 50 0 0.0 0.0 0.01 0.01 0.01 95 1007.2
20260831055519 50 0 0.0 0.0 0.01 0.01 0.01 95 1007.2
20260831055017 50 0 0.0 0.0 0.01 0.01 0.01 95 1007.2
20260831054534 50 0 0.0 0.0 0.01 0.01 0.01 95 1007.2
20260831054018 50 0 0.0 0.0 0.01 0.01 0.01 95 1007.4
20260831053518 50 0 0.0 0.0 0.01 0.01 0.01 94 1007.5
20260831053039 50 0 0.0 0.0 0.00 0.00 0.00 94 1007.5
20260831052516 50 0 0.0 0.0 0.00 0.00 0.00 94 1007.5
20260831052020 50 0 0.0 0.0 0.00 0.00 0.00 94 1007.5
20260831051539 50 0 0.0 0.0 0.00 0.00 0.00 94 1007.5
20260831051017 50 0 0.0 0.0 0.00 0.00 0.00 94 1007.6
20260831050516 50 0 0.0 0.0 0.00 0.00 0.00 94 1007.6
20260831050043 50 0 0.0 0.0 0.00 0.00 0.00 94 1007.7
20260831045523 50 0 0.0 0.0 0.00 0.00 0.00 94 1007.6
20260831045018 50 0 0.0 0.0 0.00 0.00 0.00 94 1007.7
20260831044537 50 0 0.0 0.0 0.00 0.00 0.00 94 1007.7
20260831044018 50 0 0.0 0.0 0.00 0.00 0.00 93 1007.8
20260831043520 50 0 0.0 0.0 0.00 0.00 0.00 93 1007.8
20260831043041 51 0 0.0 0.0 0.00 0.00 0.00 93 1007.8
20260831042520 51 0 0.0 0.0 0.00 0.00 0.00 93 1007.9
20260831042019 51 0 0.0 0.0 0.00 0.00 0.00 93 1007.9
20260831041539 51 0 0.0 0.0 0.00 0.00 0.00 93 1007.9
20260831041019 51 0 0.0 0.0 0.00 0.00 0.00 93 1008.0
20260831040516 51 0 0.0 0.0 0.00 0.00 0.00 92 1008.2
20260831040036 51 0 0.0 0.0 0.00 0.00 0.00 92 1008.1
20260831035519 51 0 0.0 0.0 0.00 0.00 0.00 92 1008.2
20260831035020 51 0 0.0 0.0 0.00 0.00 0.00 92 1008.3
20260831034533 51 0 0.0 0.0 0.00 0.00 0.00 92 1008.4
20260831034020 52 0 0.0 0.0 0.00 0.00 0.00 91 1008.4
20260831033520 52 0 0.0 0.0 0.00 0.00 0.00 91 1008.5
20260831033057 52 0 0.0 0.0 0.00 0.00 0.00 91 1008.6
20260831032516 52 0 0.0 0.0 0.00 0.00 0.00 91 1008.8
20260831032017 52 0 0.0 0.0 0.00 0.00 0.00 91 1008.8
20260831031535 52 0 0.0 0.0 0.00 0.00 0.00 91 1008.8
20260831031027 52 0 0.0 0.0 0.00 0.00 0.00 90 1009.1
20260831030520 52 0 0.0 0.0 0.00 0.00 0.00 90 1009.2
20260831030037 52 0 0.0 0.0 0.00 0.00 0.00 90 1009.3
20260831025521 52 0 0.0 0.0 0.00 0.00 0.00 90 1009.3
20260831025018 52 0 0.0 0.0 0.00 0.00 0.00 90 1009.5
20260831024538 52 0 0.0 0.0 0.00 0.00 0.00 89 1009.5
20260831024018 53 0 0.0 0.0 0.00 0.00 0.00 88 1009.5
20260831023519 53 0 0.0 0.0 0.00 0.00 0.00 88 1009.6
20260831023033 53 0 0.0 0.0 0.00 0.00 0.00 87 1009.7
20260831022518 53 0 0.0 0.0 0.00 0.00 0.00 87 1009.7
20260831022017 53 0 0.0 0.0 0.00 0.00 0.00 87 1009.9
20260831021533 53 0 0.0 0.0 0.00 0.00 0.00 86 1009.9
20260831021024 53 0 0.0 0.0 0.00 0.00 0.00 86 1010.0
20260831020522 54 0 0.0 0.0 0.00 0.00 0.00 85 1009.9
20260831020036 54 0 0.0 0.0 0.00 0.00 0.00 84 1009.9
20260831015521 54 0 0.0 0.0 0.00 0.00 0.00 82 1010.0
20260831015018 55 0 0.0 0.0 0.00 0.00 0.00 80 1010.2
20260831014534 55 0 0.0 0.0 0.00 0.00 0.00 78 1010.2
20260831014016 55 0 0.0 1.0 0.00 0.00 0.00 78 1010.3
20260831013518 55 0 0.0 3.0 0.00 0.00 0.00 77 1010.3
20260831013036 55 219 0.0 3.0 0.00 0.00 0.00 76 1010.2
20260831012518 55 0 0.0 2.0 0.00 0.00 0.00 76 1010.3
20260831012020 55 162 0.0 1.0 0.00 0.00 0.00 77 1010.3
20260831011542 55 0 0.0 0.0 0.00 0.00 0.00 76 1010.1
20260831011020 55 0 0.0 0.0 0.00 0.00 0.00 75 1010.4
20260831010519 55 0 0.0 2.0 0.00 0.00 0.00 76 1010.4